This is the latest recevied weather packets stored in our database for station/object W1ERB-13. If no packets are shown the sender has not sent any weather packets the latest 10 day(s).
| Time | Temp. | Humidity | Pressure | Rain* | Wind** | Luminosity | Snow |
|---|---|---|---|---|---|---|---|
| 1777654922 | 15.56° C | 36% | 1010.6 hPa | 0 mm | - | 444 W/m² | - |
| 1777654620 | 15.56° C | 43% | 1010.7 hPa | 0 mm | - | 783 W/m² | - |
| 1777654317 | 15° C | 41% | 1010.8 hPa | 0 mm | - | 751 W/m² | - |
| 1777654015 | 15° C | 39% | 1010.6 hPa | 0 mm | - | 764 W/m² | - |
| 1777653712 | 15° C | 38% | 1010.7 hPa | 0 mm | - | 155 W/m² | - |
| 1777653408 | 15.56° C | 38% | 1010.8 hPa | 0 mm | - | 786 W/m² | - |
| 1777653105 | 16.11° C | 38% | 1010.7 hPa | 0 mm | - | 258 W/m² | - |
| 1777652801 | 15.56° C | 39% | 1010.9 hPa | 0 mm | - | 742 W/m² | - |
| 1777652498 | 15° C | 42% | 1010.9 hPa | 0 mm | - | 781 W/m² | - |
| 1777652195 | 16.11° C | 36% | 1010.8 hPa | 0 mm | - | 319 W/m² | - |
| 1777651892 | 15.56° C | 40% | 1011 hPa | 0 mm | - | 793 W/m² | - |
| 1777651589 | 14.44° C | 41% | 1011 hPa | 0 mm | - | 685 W/m² | - |
| 1777651286 | 15° C | 40% | 1011 hPa | 0 mm | - | 655 W/m² | - |
| 1777650982 | 13.89° C | 41% | 1011.1 hPa | 0 mm | - | 719 W/m² | - |
| 1777650680 | 14.44° C | 47% | 1011.2 hPa | 0 mm | - | 741 W/m² | - |
| 1777650377 | 14.44° C | 44% | 1011.3 hPa | 0 mm | - | 734 W/m² | - |
| 1777650074 | 13.33° C | 45% | 1011.3 hPa | 0 mm | - | 751 W/m² | - |
| 1777649771 | 13.33° C | 44% | 1011.3 hPa | 0 mm | - | 767 W/m² | - |
| 1777649468 | 13.89° C | 40% | 1011.3 hPa | 0 mm | - | 759 W/m² | - |
| 1777649164 | 14.44° C | 44% | 1011.5 hPa | 0 mm | - | 756 W/m² | - |
| 1777648861 | 14.44° C | 45% | 1011.5 hPa | 0 mm | - | 757 W/m² | - |
| 1777648255 | 13.89° C | 45% | 1011.4 hPa | 0 mm | - | 221 W/m² | - |
| 1777647950 | 14.44° C | 45% | 1011.4 hPa | 0 mm | - | 817 W/m² | - |
| 1777647648 | 14.44° C | 46% | 1011.3 hPa | 0 mm | - | 796 W/m² | - |
| 1777647344 | 13.89° C | 44% | 1011.3 hPa | 0 mm | - | 803 W/m² | - |
* Rain latest hour (hover to see other rain measurements)
** Current wind speed in m/s (hover to see current wind gust speed)